Location: Unspecified
(51.6250°N, 0.8230°E)
Time: 06:22:56
(UTC+01:00)

Cosmos 1674 - Visible Passes

Search period start: 27 May 2018 00:00
Search period end: 06 June 2018 00:00
Orbit: 497 x 521 km, 82.5° (Epoch: 26 May)

Date Brightness Start Highest point End Pass type
(mag) Time Alt. Az. Time Alt. Az. Time Alt. Az.
27 May 4.5 00:50:17 17° ESE 00:51:36 21° E 00:54:28 10° NE visible
27 May 3.6 02:25:09 22° SW 02:26:58 36° WNW 02:30:29 10° N visible
28 May 4.7 00:33:14 15° ESE 00:34:33 17° E 00:37:02 10° NE visible
28 May 3.3 02:08:06 26° SW 02:09:47 45° WNW 02:13:26 10° N visible
29 May 4.9 00:16:10 12° ESE 00:17:30 14° E 00:19:29 10° NE visible
29 May 2.9 01:51:02 31° SW 01:52:37 57° WNW 01:56:21 10° N visible
29 May 5.1 23:59:17 10° E 00:00:28 11° E 00:01:40 10° ENE visible
30 May 2.7 01:33:58 34° SSW 01:35:27 73° WNW 01:39:13 10° N visible
31 May 2.6 01:16:52 36° S 01:18:18 88° E 01:22:06 10° N visible
31 May 5.2 02:53:33 10° WNW 02:54:31 11° WNW 02:55:30 10° NW visible
01 Jun 2.7 00:59:47 36° S 01:01:10 70° E 01:04:56 10° NNE visible
01 Jun 5.1 02:35:24 10° W 02:37:15 13° WNW 02:39:06 10° NNW visible
02 Jun 3.0 00:42:40 33° SSE 00:44:02 54° E 00:47:45 10° NNE visible
02 Jun 4.9 02:17:37 10° WSW 02:19:59 16° WNW 02:22:22 10° NNW visible
03 Jun 3.3 00:25:33 29° SE 00:26:56 43° E 00:30:32 10° NNE visible
03 Jun 4.7 02:00:24 12° WSW 02:02:44 19° WNW 02:05:31 10° NNW visible
04 Jun 3.6 00:08:25 25° SE 00:09:50 34° E 00:13:17 10° NNE visible
04 Jun 4.5 01:43:16 14° WSW 01:45:30 23° WNW 01:48:34 10° NNW visible
04 Jun 4.0 23:51:16 21° SE 23:52:44 27° E 23:56:00 10° NNE visible
05 Jun 4.2 01:26:07 17° WSW 01:28:17 28° WNW 01:31:36 10° N visible
05 Jun 4.2 23:34:06 17° ESE 23:35:40 22° E 23:38:40 10° NE visible
